#timestamp,LO_Frequency,Hit,StdDev 
1503414015.7,286046997.9,N,1.5
1503414035.5,286046997.9,N,1.4
1503414055.4,286046995.5,Y,0.0
1503414075.2,286046997.9,P,0.4
1503414095.1,286046996.7,P,0.8
1503414096.0,286046996.7,P,0.8
1503414115.8,286046996.7,Y,0.0
1503414135.6,286047000.9,P,1.7
1503414155.5,286047000.4,N,1.5
1503414175.3,286047000.5,N,1.4
1503414195.2,286047000.8,N,1.3
1503414215.9,286047000.7,N,1.2
1503414235.7,286047001.1,N,1.2
1503414255.6,286046998.5,N,1.2
1503414275.4,286046998.5,N,1.3
1503414295.3,286047001.2,N,1.3
1503414315.1,286046998.2,N,1.3
1503414316.0,286046998.2,N,1.3
1503414335.8,286047001.0,N,1.3
1503414355.7,286046998.5,N,1.3
1503414375.5,286046998.5,N,1.3
1503414395.3,286046998.5,N,1.3
1503414415.2,286046998.4,N,1.3
1503414435.0,286046999.9,N,1.3
1503414435.9,286046999.9,N,1.2
1503414455.8,286047000.4,N,1.2
1503414475.6,286047000.0,N,1.2
1503414495.5,286047000.1,N,1.2
1503414515.3,286047002.6,N,1.3
1503414535.1,286047002.6,N,1.4
1503414555.9,286047002.8,N,1.5
1503414575.7,286047002.4,N,1.5
1503414595.6,286047002.3,N,1.5
1503414615.4,286047000.1,N,1.5
1503414635.2,286046999.9,N,1.5
1503414655.1,286047002.2,N,1.5
1503414656.0,286047002.2,N,1.5
1503414675.8,286047002.5,N,1.5
1503414695.6,286047001.4,N,1.5
1503414715.5,286047001.3,N,1.5
1503414735.3,286047006.0,Y,0.0
1503414755.2,286047005.9,P,2.7
1503414775.0,286047003.7,N,2.2
1503414775.9,286047003.7,N,1.9
1503414795.7,286047003.9,N,1.7
1503414815.6,286047004.4,N,1.6
1503414835.4,286047001.8,N,1.6
1503414855.3,286047001.7,N,1.6
1503414875.1,286047001.6,N,1.6
1503414895.8,286047001.4,N,1.6
1503414915.7,286047004.2,N,1.6
1503414935.5,286047003.2,N,1.5
1503414955.4,286047005.3,Y,0.0
1503414975.2,286047001.9,P,0.5
1503414995.0,286047002.2,P,0.5
1503414995.9,286047002.2,P,0.4
1503415015.8,286047003.7,Y,0.0
1503415035.6,286047002.8,P,0.2
1503415055.5,286047002.1,P,0.3
1503415075.3,286047001.4,P,0.5
1503415095.1,286047004.0,Y,0.0
1503415115.9,286047002.8,P,0.3
1503415135.7,286047000.4,N,1.0
1503415155.6,286047000.2,N,1.1
1503415175.4,286047011.9,Y,0.0
1503415195.2,286047000.9,P,0.2
1503415215.1,286047000.9,P,0.2
1503415216.0,286047000.9,P,0.2
1503415235.8,286047000.9,Y,0.0
1503415255.7,286046998.5,P,1.3
1503415275.5,286046998.6,N,1.2
1503415295.3,286046999.5,N,1.0
1503415315.2,286046999.6,N,0.9
1503415335.0,286046999.6,N,0.8
1503415335.9,286682705.1,Y,0.0
1503415355.8,286046999.4,P,0.0
1503415375.6,286046998.7,P,0.3
1503415395.4,286046998.3,P,0.5
1503415415.3,286046998.5,Y,0.0
1503415435.1,286042622.4,P,2188.3
1503415455.9,286047000.3,N,2063.4
1503415475.7,286047000.3,N,1895.5
1503415495.5,286047000.6,N,1751.0
1503415515.4,286046999.8,N,1631.4
1503415535.2,286046999.9,N,1531.8
1503415555.0,286046999.9,N,1447.7
1503415555.9,286046999.9,N,1375.7
1503415575.8,286047002.2,N,1313.3
1503415595.6,286047002.4,N,1258.6
1503415615.5,286047000.2,N,1210.0
1503415635.3,286047000.0,N,1166.6
1503415655.1,286047002.8,N,1127.5
1503415675.9,286047002.8,N,1092.1
1503415695.7,286046999.7,N,1059.8
1503415715.5,286047000.2,N,1030.2
1503415735.4,286047002.8,N,1002.9
1503415755.2,286047001.5,N,977.7
1503415775.1,286047002.4,N,954.3
1503415776.0,286047002.4,N,932.4
1503415795.8,286047002.7,N,912.1
1503415815.6,286047000.2,N,892.9
1503415835.5,286047002.3,N,875.0
1503415855.3,286047001.6,N,858.0
1503415875.2,286047002.8,N,842.1
1503415895.9,286047002.7,N,826.9
1503415915.7,286047002.7,N,812.6
1503415935.6,286046999.7,N,799.0
1503415955.4,286047002.3,N,786.0
1503415975.3,286046999.8,N,786.0
1503415995.1,286046999.9,N,1.2
1503415996.0,286046999.9,N,1.3
1503416015.8,286047002.5,N,1.3
1503416035.7,286047000.2,N,1.3
1503416055.5,286047000.1,N,1.3
1503416075.4,286047000.4,N,1.3
1503416095.2,286047000.1,N,1.2
1503416115.0,286047000.5,N,1.2
1503416115.9,286047000.5,N,1.2
1503416135.8,286047002.8,N,1.2
1503416155.6,286047002.0,N,1.2
1503416175.4,286047002.5,N,1.2
1503416195.3,286047002.3,N,1.2
1503416215.1,286047002.3,N,1.2
1503416235.9,286047002.7,N,1.2
1503416255.7,286047002.4,N,1.2
1503416275.5,286047000.4,N,1.1
1503416295.4,286047002.6,N,1.2
1503416315.2,286047001.6,N,1.2
1503416335.1,286047002.2,N,1.1
1503416336.0,286047002.2,N,1.1
1503416355.8,286047000.2,N,1.1
1503416375.6,286047002.7,N,1.1
1503416395.5,286047002.4,N,1.2
1503416415.3,286047002.4,N,1.1
1503416435.2,286047002.4,N,1.1
1503416455.0,286047002.3,N,1.1
1503416455.9,286047002.3,N,1.1
1503416475.7,286047002.5,N,1.1
1503416495.6,286047001.4,N,1.0
1503416515.4,286047001.8,N,1.0
1503416535.3,286047002.2,N,0.9
1503416555.1,286047002.8,N,0.9
1503416575.8,286047002.2,N,0.9
1503416595.7,286047002.2,N,0.8
1503416615.5,286047002.2,N,0.8
1503416635.4,286046999.9,N,0.8
1503416655.2,286047002.0,N,0.8
1503416675.0,286047002.0,N,0.7
1503416675.9,286047002.0,N,0.7
1503416695.8,286047001.5,N,0.7
1503416715.6,286047002.3,Y,0.0
1503416735.5,286047001.1,P,0.5
1503416755.3,286047001.1,N,0.4
1503416775.1,286047000.6,N,0.5
1503416795.9,286046999.8,N,0.7
1503416815.7,286047000.4,N,0.7
1503416835.5,286047000.1,N,0.7
1503416855.4,286046999.9,N,0.7
1503416875.2,286047000.1,N,0.7
1503416895.1,286046999.9,N,0.7
1503416896.0,286046999.9,N,0.7
1503416915.8,286047001.2,N,0.7
1503416935.6,286046999.9,N,0.7
1503416955.5,286046999.7,N,0.7
1503416975.3,286047000.4,N,0.6
1503416995.2,286047000.4,N,0.6
1503417015.9,286046999.8,N,0.6
1503417035.7,286047002.4,Y,0.0
1503417055.6,286047002.4,P,1.0
1503417075.4,286047002.8,N,1.1
1503417095.3,286047002.7,N,1.0
1503417115.1,286046999.7,N,1.3
1503417116.0,286046999.7,N,1.4
1503417135.8,286047002.4,N,1.3
1503417155.7,286047002.7,N,1.3
1503417175.5,286047002.7,N,1.3
1503417195.3,286046999.8,N,1.4
1503417215.2,286046999.8,N,1.4
1503417235.0,286046999.9,N,1.4
1503417235.9,286046999.9,N,1.4
1503417255.8,286047002.6,N,1.4
1503417275.6,286047000.4,N,1.3
1503417295.4,286046999.7,N,1.4
1503417315.3,286047002.6,N,1.4
1503417335.1,286047002.8,N,1.4
1503417355.9,286046999.8,N,1.4
1503417375.7,286047002.7,N,1.4
1503417395.5,286047002.1,N,1.4
1503417415.4,286047002.0,N,1.3
1503417435.2,286047002.0,N,1.3
1503417455.1,286047002.6,N,1.3
1503417456.0,286047002.6,N,1.3
1503417505.8,286047001.6,E,nan
1503417515.8,286047002.6,N,0.0
1503417535.6,286047000.8,P,0.9
1503417555.4,286046999.9,N,1.1
1503417575.3,286046998.6,N,1.5
1503417595.1,286047001.0,N,1.3
